Powrót do katalogu

COSMOS 1275 DEB

AktywnyPO
NORAD 42133·DEBRIS·🇷🇺 Russia

Wystrzelony Jun 4, 1981 z Plesetsk Cosmodrome

Loading…

Następne Przeloty (najbliższe 24 godziny)

TLE

ŚwieżeSource: Space-Track

Epoka: Sep 13, 2026, 11:18 UTC

1 42133U 81053QV  26256.47105276  .00000824  00000-0  98455-3 0  9991
2 42133  83.1297 308.2573 0161352 298.5085  59.9897 13.60796760132286

Śledź COSMOS 1275 DEB w czasie rzeczywistym z AllMySat

Download on the App Store